Regional Weather Roundup
Issued by NWS

Current Version | Previous Version | Text Only | Print | Product List | Glossary On
Versions: 1 2 3 4 5 6 7 8 9 10 11 12 13 14 15 16 17 18 19 20 21 22 23 24 25 26 27 28 29 30 31 32 33 34 35 36 37 38 39 40 41 42 43 44 45 46 47 48 49 50
000
ASUS44 KMEG 292110
RWRTN
TENNESSEE HOURLY STATE WEATHER ROUNDUP
NATIONAL WEATHER SERVICE MEMPHIS TN
400 PM CDT THU SEP 29 2016

TNZ002-004-019-021-049-052-054-088>092-292200-
WEST TENNESSEE

CITY           SKY/WX    TMP DP  RH WIND       PRES   REMARKS
MEMPHIS INTL   PTSUNNY   75  51  43 N16G23    30.10F
NWS MEMPHIS      N/A     73 N/A N/A MISG        N/A
JACKSON        PTSUNNY  N/A N/A N/A NW13      30.12R
DYERSBURG      CLOUDY   N/A N/A N/A MISG        N/A
UNION CITY     PTSUNNY   66  54  63 N13       30.11S
PARIS          PTSUNNY   61  54  77 VRB6      30.12F
HUNTINGDON     PTSUNNY   63  57  82 VRB6G13   30.11F
LEXINGTON      CLOUDY    61  54  77 NW9       30.12R
$$

TNZ008-025-027-028-033-062-065-066-292200-
NORTH MIDDLE TENNESSEE

CITY           SKY/WX    TMP DP  RH WIND       PRES   REMARKS
NASHVILLE      CLOUDY    62  50  64 W10G22    30.09S
PORTLAND       CLOUDY    61  50  67 W6        30.08S
CLARKSVILLE    PTSUNNY   63  52  67 NW5       30.10S
SMYRNA         CLOUDY    62  52  69 NW10      30.09S
COOKEVILLE     CLOUDY    63  52  67 NW6       30.07R
GALLATIN       PTSUNNY   63  54  72 NW6       30.11R
CROSSVILLE     PTSUNNY   62  45  53 NW12      30.07R
$$

TNZ061-075-076-078-094-096-097-292200-
SOUTH MIDDLE TENNESSEE

CITY           SKY/WX    TMP DP  RH WIND       PRES   REMARKS
FAYETTEVILLE   CLOUDY    64  48  55 NW7       30.07S
TULLAHOMA      PTSUNNY   63  46  55 N9        30.09S
WINCHESTER     CLOUDY    63  48  59 NW7       30.08R
MCMINNVILLE    CLOUDY    63  48  59 VRB7      30.08R
COLUMBIA       CLOUDY    63  59  88 VRB7      30.09S
SHELBYVILLE    CLOUDY    64  52  63 N8        30.09S
$$

TNZ017-018-042-046-047-292200-
NORTHEAST TENNESSEE

CITY           SKY/WX    TMP DP  RH WIND       PRES   REMARKS
TRI CITIES     LGT RAIN  65  59  81 VRB5      30.00R
ELIZABETHTON   CLOUDY    63  61  94 W6        30.00R
$$

TNZ012-013-036-069-073-074-292200-
CENTRAL EAST TENNESSEE

CITY           SKY/WX    TMP DP  RH WIND       PRES   REMARKS
KNOXVILLE      MOSUNNY   71  47  42 NW9       30.00R
OAK RIDGE      CLOUDY    68  46  45 NW6       30.04R
DOWNTOWN KNOXV PTSUNNY   70  50  49 VRB7      30.01R
GATLINBURG     CLOUDY    66  48  52 NW8       30.00R
MORRISTOWN     CLOUDY    66  50  55 N7        30.00R
JACKSBORO      CLOUDY    64  48  55 VRB6G12   30.06S
$$

TNZ083-085-099-292200-
SOUTHEAST TENNESSEE

CITY           SKY/WX    TMP DP  RH WIND       PRES   REMARKS
CHATTANOOGA    PTSUNNY   70  45  40 N12       30.03R
$$

SKY/WX REPORTED AS FAIR MEANS FEW OR NO CLOUDS BELOW
12 THOUSAND FEET.




USA.gov is the U.S. government's official web portal to all federal, state and local government web resources and services.